,,,PA_Meas_PMT16A,,PR_Meas_QMR101_102,,RH_Meas_QMH101,,SR_Meas_QMS101,,TA_Meas_QMH101,,GenWind,,GenWind,
date,time,status,PA,status,PR,status,RH,status,SR,status,TA,status,DirAvg,status,SpdAvg,
2010-10-14, 00:00:05,VALID,1009.06,VALID,0,VALID,103.703,VALID,0,VALID,24.0253,VALID,119,VALID,0.691016,
2010-10-14, 00:01:05,VALID,1009.08,VALID,0,VALID,103.687,VALID,0,VALID,24.0661,VALID,119,VALID,0.534766,
2010-10-14, 00:02:05,VALID,1009.1,VALID,0,VALID,103.695,VALID,0,VALID,24.0253,VALID,119,VALID,0.290234,
2010-10-14, 00:03:05,VALID,1009.09,VALID,0,VALID,103.703,VALID,0,VALID,24.0058,VALID,121,VALID,0.577344,
2010-10-14, 00:04:05,VALID,1009.08,VALID,0,VALID,103.695,VALID,0,VALID,23.9863,VALID,126,VALID,0.380078,
2010-10-14, 00:05:05,VALID,1009.12,VALID,0,VALID,103.68,VALID,0,VALID,24.0058,VALID,126,VALID,0.237109,
2010-10-14, 00:06:05,VALID,1009.1,VALID,0,VALID,103.695,VALID,0,VALID,23.9668,VALID,126,VALID,0.642578,
2010-10-14, 00:07:05,VALID,1009.11,VALID,0,VALID,103.695,VALID,0,VALID,23.9668,VALID,126,VALID,0.448047,
2010-10-14, 00:08:05,VALID,1009.11,VALID,0,VALID,103.687,VALID,0,VALID,23.9473,VALID,126,VALID,0.293359,
2010-10-14, 00:09:05,VALID,1009.14,VALID,0,VALID,103.687,VALID,0,VALID,23.9278,VALID,126,VALID,0.0121094,
2010-10-14, 00:10:05,VALID,1009.12,VALID,0,VALID,103.687,VALID,0,VALID,23.9686,VALID,126,VALID,0,
2010-10-14, 00:11:05,VALID,1009.12,VALID,0,VALID,103.687,VALID,0,VALID,23.9278,VALID,126,VALID,0,
2010-10-14, 00:12:05,VALID,1009.11,VALID,0,VALID,103.672,VALID,0,VALID,23.9686,VALID,126,VALID,0,
2010-10-14, 00:13:05,VALID,1009.12,VALID,0,VALID,103.695,VALID,0,VALID,23.9473,VALID,126,VALID,0,
2010-10-14, 00:14:05,VALID,1009.13,VALID,0,VALID,103.687,VALID,0,VALID,23.9473,VALID,126,VALID,0.378906,
2010-10-14, 00:15:05,VALID,1009.14,VALID,0,VALID,103.664,VALID,0,VALID,23.9668,VALID,126,VALID,0.0644531,
2010-10-14, 00:16:05,VALID,1009.12,VALID,0,VALID,103.687,VALID,0,VALID,23.9473,VALID,126,VALID,0.133594,
2010-10-14, 00:17:05,VALID,1009.12,VALID,0,VALID,103.68,VALID,0,VALID,23.9668,VALID,126,VALID,0,
2010-10-14, 00:18:05,VALID,1009.11,VALID,0,VALID,103.672,VALID,0,VALID,23.9668,VALID,126,VALID,0,
2010-10-14, 00:19:05,VALID,1009.11,VALID,0,VALID,103.695,VALID,0,VALID,23.9473,VALID,126,VALID,0,
2010-10-14, 00:20:05,VALID,1009.09,VALID,0,VALID,103.687,VALID,0,VALID,23.9881,VALID,126,VALID,0.245312,
2010-10-14, 00:21:05,VALID,1009.11,VALID,0,VALID,103.687,VALID,0,VALID,23.9668,VALID,126,VALID,0.380078,
2010-10-14, 00:22:05,VALID,1009.09,VALID,0,VALID,103.687,VALID,0,VALID,23.9863,VALID,126,VALID,0.44375,
2010-10-14, 00:23:05,VALID,1009.08,VALID,0,VALID,103.687,VALID,0,VALID,23.9668,VALID,126,VALID,0.432031,
2010-10-14, 00:24:05,VALID,1009.08,VALID,0,VALID,103.695,VALID,0,VALID,23.9668,VALID,126,VALID,0.310156,
2010-10-14, 00:25:05,VALID,1009.05,VALID,0,VALID,103.695,VALID,0,VALID,24.0076,VALID,126,VALID,0.374609,
2010-10-14, 00:26:05,VALID,1009.04,VALID,0,VALID,103.68,VALID,0,VALID,24.0076,VALID,126,VALID,0.464063,
2010-10-14, 00:27:05,VALID,1009.01,VALID,0,VALID,103.733,VALID,0,VALID,23.9473,VALID,126,VALID,0.662109,
2010-10-14, 00:28:05,VALID,1009.02,VALID,0,VALID,103.695,VALID,0,VALID,23.9473,VALID,126,VALID,0.335156,
2010-10-14, 00:29:05,VALID,1009.03,VALID,0,VALID,103.703,VALID,0,VALID,23.9473,VALID,126,VALID,0.249609,
2010-10-14, 00:30:05,VALID,1009.02,VALID,0,VALID,103.703,VALID,0,VALID,23.9668,VALID,126,VALID,0.333203,
2010-10-14, 00:31:05,VALID,1009.02,VALID,0,VALID,103.726,VALID,0,VALID,23.9668,VALID,126,VALID,0.734375,
2010-10-14, 00:32:05,VALID,1008.99,VALID,0,VALID,103.695,VALID,0,VALID,23.9668,VALID,119,VALID,0.238672,
2010-10-14, 00:33:05,VALID,1008.95,VALID,0,VALID,103.71,VALID,0,VALID,23.9668,VALID,119,VALID,0,
2010-10-14, 00:34:05,VALID,1008.95,VALID,0,VALID,103.718,VALID,0,VALID,23.9668,VALID,143,VALID,0,
2010-10-14, 00:35:05,VALID,1008.93,VALID,0,VALID,103.733,VALID,0,VALID,23.9278,VALID,142,VALID,0,
2010-10-14, 00:36:05,VALID,1008.92,VALID,0,VALID,103.71,VALID,0,VALID,23.9278,VALID,142,VALID,0,
2010-10-14, 00:37:05,VALID,1008.91,VALID,0,VALID,103.733,VALID,0.105969,VALID,23.926,VALID,142,VALID,0,
2010-10-14, 00:38:05,VALID,1008.88,VALID,0,VALID,103.726,VALID,0,VALID,23.9473,VALID,142,VALID,0,
2010-10-14, 00:39:05,VALID,1008.89,VALID,0,VALID,103.718,VALID,0.105969,VALID,23.926,VALID,142,VALID,0,
2010-10-14, 00:40:05,VALID,1008.86,VALID,0,VALID,103.726,VALID,0,VALID,23.9473,VALID,142,VALID,0,
2010-10-14, 00:41:05,VALID,1008.84,VALID,0,VALID,103.71,VALID,0,VALID,23.926,VALID,142,VALID,0,
2010-10-14, 00:42:05,VALID,1008.86,VALID,0,VALID,103.726,VALID,0.105969,VALID,23.9065,VALID,142,VALID,0,
2010-10-14, 00:43:05,VALID,1008.84,VALID,0,VALID,103.726,VALID,0.105969,VALID,23.9065,VALID,142,VALID,0,
2010-10-14, 00:44:05,VALID,1008.83,VALID,0,VALID,103.726,VALID,0.105969,VALID,23.9065,VALID,142,VALID,0,
2010-10-14, 00:45:05,VALID,1008.83,VALID,0,VALID,103.733,VALID,0.105969,VALID,23.8871,VALID,142,VALID,0,
2010-10-14, 00:46:05,VALID,1008.8,VALID,0,VALID,103.71,VALID,0,VALID,23.9084,VALID,142,VALID,0,
2010-10-14, 00:47:05,VALID,1008.81,VALID,0,VALID,103.733,VALID,0.105969,VALID,23.8676,VALID,142,VALID,0,
2010-10-14, 00:48:05,VALID,1008.83,VALID,0,VALID,103.726,VALID,0.105969,VALID,23.8676,VALID,143,VALID,0.593359,
2010-10-14, 00:49:05,VALID,1008.8,VALID,0,VALID,103.733,VALID,0,VALID,23.8889,VALID,143,VALID,0.374609,
2010-10-14, 00:50:05,VALID,1008.79,VALID,0,VALID,103.741,VALID,0,VALID,23.8889,VALID,143,VALID,0.489844,
2010-10-14, 00:51:05,VALID,1008.78,VALID,0,VALID,103.718,VALID,0.105969,VALID,23.8676,VALID,143,VALID,0.417188,
2010-10-14, 00:52:05,VALID,1008.74,VALID,0,VALID,103.703,VALID,0.105969,VALID,23.8676,VALID,143,VALID,0.297266,
2010-10-14, 00:53:05,VALID,1008.73,VALID,0,VALID,103.695,VALID,0,VALID,23.8481,VALID,143,VALID,0,
2010-10-14, 00:54:05,VALID,1008.69,VALID,0,VALID,103.703,VALID,0,VALID,23.8481,VALID,143,VALID,0,
2010-10-14, 00:55:05,VALID,1008.68,VALID,0,VALID,103.672,VALID,0,VALID,23.8481,VALID,143,VALID,0,
2010-10-14, 00:56:05,VALID,1008.66,VALID,0,VALID,103.672,VALID,0.105969,VALID,23.8676,VALID,143,VALID,0,
2010-10-14, 00:57:05,VALID,1008.64,VALID,0,VALID,103.672,VALID,0.105969,VALID,23.8676,VALID,143,VALID,0.679297,
2010-10-14, 00:58:05,VALID,1008.61,VALID,0,VALID,103.672,VALID,0,VALID,23.8694,VALID,143,VALID,0.475,
2010-10-14, 00:59:05,VALID,1008.6,VALID,0,VALID,103.687,VALID,0,VALID,23.8676,VALID,143,VALID,0.612891,
2010-10-14, 01:00:05,VALID,1008.6,VALID,0,VALID,103.695,VALID,0.105969,VALID,23.8889,VALID,143,VALID,0.539063,
2010-10-14, 01:01:05,VALID,1008.54,VALID,0,VALID,103.695,VALID,0.105969,VALID,23.8676,VALID,143,VALID,0.466797,
2010-10-14, 01:02:05,VALID,1008.55,VALID,0,VALID,103.687,VALID,0,VALID,23.8676,VALID,134,VALID,0.557813,
2010-10-14, 01:03:05,VALID,1008.53,VALID,0,VALID,103.68,VALID,0.105969,VALID,23.8676,VALID,133,VALID,0.698047,
2010-10-14, 01:04:05,VALID,1008.5,VALID,0,VALID,103.703,VALID,0,VALID,23.8871,VALID,133,VALID,0.515625,
2010-10-14, 01:05:05,VALID,1008.5,VALID,0,VALID,103.71,VALID,0.105969,VALID,23.8871,VALID,133,VALID,0.491406,
2010-10-14, 01:06:05,VALID,1008.46,VALID,0,VALID,103.71,VALID,0.105969,VALID,23.8676,VALID,133,VALID,0.558203,
2010-10-14, 01:07:05,VALID,1008.46,VALID,0,VALID,103.703,VALID,0,VALID,23.8889,VALID,124,VALID,0.527734,
2010-10-14, 01:08:05,VALID,1008.43,VALID,0,VALID,103.687,VALID,0,VALID,23.8676,VALID,124,VALID,0.575781,
2010-10-14, 01:09:05,VALID,1008.41,VALID,0,VALID,103.687,VALID,0,VALID,23.9084,VALID,124,VALID,0.525,
2010-10-14, 01:10:05,VALID,1008.42,VALID,0,VALID,103.718,VALID,0.105969,VALID,23.8676,VALID,129,VALID,0.941797,
2010-10-14, 01:11:05,VALID,1008.41,VALID,0,VALID,103.695,VALID,0.105969,VALID,23.9084,VALID,134,VALID,0.644531,
2010-10-14, 01:12:05,VALID,1008.41,VALID,0,VALID,103.695,VALID,0.105969,VALID,23.8871,VALID,134,VALID,0.8125,
2010-10-14, 01:13:05,VALID,1008.4,VALID,0,VALID,103.726,VALID,0.105969,VALID,23.8871,VALID,134,VALID,0.791406,
2010-10-14, 01:14:05,VALID,1008.36,VALID,0,VALID,103.71,VALID,0.105969,VALID,23.9084,VALID,135,VALID,0.837891,
2010-10-14, 01:15:05,VALID,1008.38,VALID,0,VALID,103.703,VALID,0.105969,VALID,23.8871,VALID,124,VALID,0.820703,
2010-10-14, 01:16:05,VALID,1008.36,VALID,0,VALID,103.703,VALID,0.105969,VALID,23.8871,VALID,106,VALID,0.766406,
2010-10-14, 01:17:05,VALID,1008.35,VALID,0,VALID,103.718,VALID,0,VALID,23.8871,VALID,126,VALID,0.911328,
2010-10-14, 01:18:05,VALID,1008.34,VALID,0,VALID,103.718,VALID,0.105969,VALID,23.8676,VALID,126,VALID,0.901953,
2010-10-14, 01:19:04,VALID,1008.37,VALID,0,VALID,103.733,VALID,0,VALID,23.8676,VALID,139,VALID,0.748438,
2010-10-14, 01:20:04,VALID,1008.37,VALID,0,VALID,103.718,VALID,0.105969,VALID,23.8481,VALID,139,VALID,0.509375,
2010-10-14, 01:21:04,VALID,1008.35,VALID,0,VALID,103.695,VALID,0,VALID,23.8676,VALID,139,VALID,0.610156,
2010-10-14, 01:22:04,VALID,1008.34,VALID,0,VALID,103.718,VALID,0,VALID,23.8676,VALID,139,VALID,0.176172,
2010-10-14, 01:23:04,VALID,1008.34,VALID,0,VALID,103.703,VALID,0.105969,VALID,23.8676,VALID,139,VALID,0.63125,
2010-10-14, 01:24:04,VALID,1008.34,VALID,0,VALID,103.741,VALID,0.105969,VALID,23.8676,VALID,139,VALID,0.518359,
2010-10-14, 01:25:04,VALID,1008.34,VALID,0,VALID,103.726,VALID,0,VALID,23.8481,VALID,139,VALID,1.16289,
2010-10-14, 01:26:04,VALID,1008.36,VALID,0,VALID,103.726,VALID,0.105969,VALID,23.8481,VALID,130,VALID,0.741797,
2010-10-14, 01:27:04,VALID,1008.32,VALID,0,VALID,103.726,VALID,0,VALID,23.8286,VALID,130,VALID,0.925,
2010-10-14, 01:28:04,VALID,1008.35,VALID,0,VALID,103.733,VALID,0.105969,VALID,23.8091,VALID,140,VALID,0.7375,
2010-10-14, 01:29:04,VALID,1008.34,VALID,0,VALID,103.726,VALID,0,VALID,23.8286,VALID,146,VALID,0.675391,
2010-10-14, 01:30:04,VALID,1008.34,VALID,0,VALID,103.718,VALID,0.105969,VALID,23.8091,VALID,142,VALID,0.771875,
2010-10-14, 01:31:04,VALID,1008.36,VALID,0,VALID,103.703,VALID,0,VALID,23.8091,VALID,142,VALID,0.594141,
2010-10-14, 01:32:04,VALID,1008.34,VALID,0,VALID,103.726,VALID,0,VALID,23.8091,VALID,145,VALID,0.653125,
2010-10-14, 01:33:04,VALID,1008.32,VALID,0,VALID,103.718,VALID,0,VALID,23.7896,VALID,157,VALID,0.529688,
2010-10-14, 01:34:04,VALID,1008.32,VALID,0,VALID,103.71,VALID,0.105969,VALID,23.8109,VALID,151,VALID,0.593359,
2010-10-14, 01:35:04,VALID,1008.34,VALID,0,VALID,103.718,VALID,0.105969,VALID,23.7896,VALID,150,VALID,0.313672,
2010-10-14, 01:36:04,VALID,1008.32,VALID,0,VALID,103.71,VALID,0,VALID,23.7701,VALID,150,VALID,0.286719,
2010-10-14, 01:37:04,VALID,1008.36,VALID,0,VALID,103.71,VALID,0.105969,VALID,23.7701,VALID,150,VALID,0.476563,
2010-10-14, 01:38:04,VALID,1008.34,VALID,0,VALID,103.741,VALID,0.105969,VALID,23.7701,VALID,133,VALID,0.750391,
2010-10-14, 01:39:04,VALID,1008.35,VALID,0,VALID,103.741,VALID,0,VALID,23.7507,VALID,132,VALID,0.366406,
2010-10-14, 01:40:04,VALID,1008.34,VALID,0,VALID,103.718,VALID,0.105969,VALID,23.7507,VALID,132,VALID,0.5125,
2010-10-14, 01:41:04,VALID,1008.37,VALID,0,VALID,103.726,VALID,0.105969,VALID,23.7507,VALID,130,VALID,0.363672,
2010-10-14, 01:42:04,VALID,1008.36,VALID,0,VALID,103.71,VALID,0.105969,VALID,23.7701,VALID,130,VALID,0,
2010-10-14, 01:43:04,VALID,1008.35,VALID,0,VALID,103.703,VALID,0.105969,VALID,23.7701,VALID,130,VALID,0,
2010-10-14, 01:44:04,VALID,1008.32,VALID,0,VALID,103.695,VALID,0.105969,VALID,23.7507,VALID,130,VALID,0.451953,
2010-10-14, 01:45:04,VALID,1008.34,VALID,0,VALID,103.703,VALID,0.105969,VALID,23.7507,VALID,130,VALID,0.267188,
2010-10-14, 01:46:04,VALID,1008.34,VALID,0,VALID,103.71,VALID,0.105969,VALID,23.7507,VALID,132,VALID,0.798437,
2010-10-14, 01:47:04,VALID,1008.3,VALID,0,VALID,103.703,VALID,0.105969,VALID,23.7701,VALID,132,VALID,0.563672,
2010-10-14, 01:48:04,VALID,1008.29,VALID,0,VALID,103.703,VALID,0,VALID,23.7507,VALID,130,VALID,0.579687,
2010-10-14, 01:49:04,VALID,1008.28,VALID,0,VALID,103.695,VALID,0,VALID,23.7507,VALID,130,VALID,0.558984,
2010-10-14, 01:50:04,VALID,1008.26,VALID,0,VALID,103.718,VALID,0.105969,VALID,23.7507,VALID,111,VALID,0.868359,
2010-10-14, 01:51:04,VALID,1008.24,VALID,0,VALID,103.718,VALID,0.105969,VALID,23.7507,VALID,111,VALID,0.479688,
2010-10-14, 01:52:04,VALID,1008.25,VALID,0,VALID,103.718,VALID,0,VALID,23.772,VALID,111,VALID,0.582422,
2010-10-14, 01:53:04,VALID,1008.26,VALID,0,VALID,103.703,VALID,0,VALID,23.7914,VALID,111,VALID,0.597656,
2010-10-14, 01:54:04,VALID,1008.25,VALID,0,VALID,103.718,VALID,0,VALID,23.7701,VALID,111,VALID,0.555469,
2010-10-14, 01:55:04,VALID,1008.24,VALID,0,VALID,103.733,VALID,0,VALID,23.7701,VALID,114,VALID,0.664844,
2010-10-14, 01:56:04,VALID,1008.25,VALID,0,VALID,103.726,VALID,0.105969,VALID,23.7914,VALID,107,VALID,1.01602,
2010-10-14, 01:57:04,VALID,1008.23,VALID,0,VALID,103.718,VALID,0,VALID,23.7701,VALID,100,VALID,0.616797,
2010-10-14, 01:58:04,VALID,1008.23,VALID,0,VALID,103.741,VALID,0,VALID,23.7507,VALID,145,VALID,1.00156,
2010-10-14, 01:59:04,VALID,1008.22,VALID,0,VALID,103.726,VALID,0,VALID,23.772,VALID,147,VALID,0.905469,
2010-10-14, 02:00:04,VALID,1008.22,VALID,0,VALID,103.741,VALID,0.105969,VALID,23.7525,VALID,146,VALID,0.896094,
2010-10-14, 02:01:04,VALID,1008.2,VALID,0,VALID,103.726,VALID,0.105969,VALID,23.7312,VALID,133,VALID,0.920703,
2010-10-14, 02:02:04,VALID,1008.22,VALID,0,VALID,103.726,VALID,0,VALID,23.7312,VALID,132,VALID,0.745703,
2010-10-14, 02:03:04,VALID,1008.18,VALID,0,VALID,103.756,VALID,0.105969,VALID,23.733,VALID,132,VALID,0.735937,
2010-10-14, 02:04:04,VALID,1008.2,VALID,0,VALID,103.748,VALID,0,VALID,23.733,VALID,132,VALID,0.517969,
2010-10-14, 02:05:04,VALID,1008.17,VALID,0,VALID,103.718,VALID,0,VALID,23.7117,VALID,131,VALID,0.507422,
2010-10-14, 02:06:04,VALID,1008.2,VALID,0,VALID,103.741,VALID,0,VALID,23.7117,VALID,133,VALID,0.786328,
2010-10-14, 02:07:04,VALID,1008.18,VALID,0,VALID,103.733,VALID,0,VALID,23.733,VALID,133,VALID,0.697266,
2010-10-14, 02:08:04,VALID,1008.2,VALID,0,VALID,103.726,VALID,0,VALID,23.7117,VALID,133,VALID,0.461719,
2010-10-14, 02:09:04,VALID,1008.15,VALID,0,VALID,103.71,VALID,0.105969,VALID,23.7525,VALID,133,VALID,0.499219,
2010-10-14, 02:10:04,VALID,1008.18,VALID,0,VALID,103.71,VALID,0,VALID,23.733,VALID,133,VALID,0.75625,
2010-10-14, 02:11:04,VALID,1008.19,VALID,0,VALID,103.726,VALID,0,VALID,23.7312,VALID,130,VALID,0.194141,
2010-10-14, 02:12:04,VALID,1008.19,VALID,0,VALID,103.71,VALID,0.105969,VALID,23.7312,VALID,130,VALID,0.0957031,
2010-10-14, 02:13:04,VALID,1008.23,VALID,0,VALID,103.687,VALID,0,VALID,23.7525,VALID,130,VALID,0.527734,
2010-10-14, 02:14:04,VALID,1008.22,VALID,0,VALID,103.703,VALID,0,VALID,23.7525,VALID,130,VALID,0.5875,
2010-10-14, 02:15:04,VALID,1008.2,VALID,0,VALID,103.718,VALID,0.105969,VALID,23.733,VALID,129,VALID,0.86875,
2010-10-14, 02:16:04,VALID,1008.23,VALID,0,VALID,103.718,VALID,0,VALID,23.733,VALID,130,VALID,0.698828,
2010-10-14, 02:17:04,VALID,1008.23,VALID,0,VALID,103.718,VALID,0,VALID,23.7117,VALID,129,VALID,0.8875,
2010-10-14, 02:18:04,VALID,1008.22,VALID,0,VALID,103.718,VALID,0.105969,VALID,23.7117,VALID,128,VALID,0.784375,
2010-10-14, 02:19:04,VALID,1008.23,VALID,0,VALID,103.703,VALID,0.105969,VALID,23.7117,VALID,128,VALID,0.633594,
2010-10-14, 02:20:04,VALID,1008.2,VALID,0,VALID,103.695,VALID,0.105969,VALID,23.7117,VALID,128,VALID,0.864453,
2010-10-14, 02:21:04,VALID,1008.2,VALID,0,VALID,103.71,VALID,0,VALID,23.7117,VALID,124,VALID,1.11133,
2010-10-14, 02:22:04,VALID,1008.23,VALID,0,VALID,103.718,VALID,0,VALID,23.7153,VALID,144,VALID,0.910547,
2010-10-14, 02:23:04,VALID,1008.22,VALID,0,VALID,103.71,VALID,0,VALID,23.7348,VALID,138,VALID,0.805078,
2010-10-14, 02:24:04,VALID,1008.22,VALID,0,VALID,103.718,VALID,0,VALID,23.694,VALID,132,VALID,0.644922,
2010-10-14, 02:25:04,VALID,1008.23,VALID,0,VALID,103.695,VALID,0,VALID,23.6745,VALID,136,VALID,0.596094,
2010-10-14, 02:26:04,VALID,1008.2,VALID,0,VALID,103.703,VALID,0,VALID,23.694,VALID,135,VALID,0.909766,
2010-10-14, 02:27:04,VALID,1008.2,VALID,0,VALID,103.733,VALID,0,VALID,23.7153,VALID,133,VALID,0.922656,
2010-10-14, 02:28:04,VALID,1008.2,VALID,0,VALID,103.726,VALID,0,VALID,23.7153,VALID,133,VALID,0.823438,
2010-10-14, 02:29:04,VALID,1008.22,VALID,0,VALID,103.71,VALID,0,VALID,23.6745,VALID,133,VALID,0.638672,
2010-10-14, 02:30:04,VALID,1008.22,VALID,0,VALID,103.703,VALID,0,VALID,23.6745,VALID,129,VALID,0.721094,
2010-10-14, 02:31:04,VALID,1008.24,VALID,0,VALID,103.726,VALID,0,VALID,23.6745,VALID,129,VALID,0.465234,
2010-10-14, 02:32:04,VALID,1008.25,VALID,0,VALID,103.703,VALID,0,VALID,23.6745,VALID,129,VALID,0.793359,
2010-10-14, 02:33:04,VALID,1008.25,VALID,0,VALID,103.703,VALID,0,VALID,23.7153,VALID,133,VALID,0.516797,
2010-10-14, 02:34:04,VALID,1008.28,VALID,0,VALID,103.733,VALID,0,VALID,23.6745,VALID,143,VALID,0.930469,
2010-10-14, 02:35:04,VALID,1008.24,VALID,0,VALID,103.718,VALID,0,VALID,23.6745,VALID,146,VALID,1.18516,
2010-10-14, 02:36:04,VALID,1008.27,VALID,0,VALID,103.733,VALID,0,VALID,23.6763,VALID,140,VALID,1.25,
2010-10-14, 02:37:04,VALID,1008.25,VALID,0,VALID,103.741,VALID,0,VALID,23.6532,VALID,157,VALID,0.848828,
2010-10-14, 02:38:04,VALID,1008.21,VALID,0,VALID,103.718,VALID,0.105969,VALID,23.6532,VALID,146,VALID,0.778125,
2010-10-14, 02:39:04,VALID,1008.19,VALID,0,VALID,103.71,VALID,0,VALID,23.655,VALID,143,VALID,0.799219,
2010-10-14, 02:40:04,VALID,1008.18,VALID,0,VALID,103.733,VALID,0,VALID,23.6745,VALID,143,VALID,0.602734,
2010-10-14, 02:41:04,VALID,1008.19,VALID,0,VALID,103.726,VALID,0.105969,VALID,23.6745,VALID,143,VALID,0.589063,
2010-10-14, 02:42:04,VALID,1008.18,VALID,0,VALID,103.71,VALID,0,VALID,23.655,VALID,129,VALID,0.786719,
2010-10-14, 02:43:04,VALID,1008.12,VALID,0,VALID,103.733,VALID,0.105969,VALID,23.655,VALID,129,VALID,1.21523,
2010-10-14, 02:44:04,VALID,1008.12,VALID,0,VALID,103.71,VALID,0,VALID,23.655,VALID,167,VALID,0.928906,
2010-10-14, 02:45:04,VALID,1008.11,VALID,0,VALID,103.726,VALID,0.105969,VALID,23.6338,VALID,137,VALID,0.801562,
2010-10-14, 02:46:04,VALID,1008.11,VALID,0,VALID,103.71,VALID,0.105969,VALID,23.655,VALID,137,VALID,0.165625,
2010-10-14, 02:47:04,VALID,1008.11,VALID,0,VALID,103.687,VALID,0,VALID,23.6532,VALID,137,VALID,0.573828,
2010-10-14, 02:48:04,VALID,1008.08,VALID,0,VALID,103.733,VALID,0,VALID,23.655,VALID,138,VALID,0.972656,
2010-10-14, 02:49:04,VALID,1008.08,VALID,0,VALID,103.703,VALID,0,VALID,23.6338,VALID,137,VALID,0.611328,
2010-10-14, 02:50:04,VALID,1008.06,VALID,0,VALID,103.726,VALID,0,VALID,23.6338,VALID,138,VALID,0.884375,
2010-10-14, 02:51:04,VALID,1008.1,VALID,0,VALID,103.718,VALID,0,VALID,23.655,VALID,155,VALID,0.698047,
2010-10-14, 02:52:04,VALID,1008.09,VALID,0,VALID,103.718,VALID,0.105969,VALID,23.655,VALID,125,VALID,0.716797,
2010-10-14, 02:53:04,VALID,1008.07,VALID,0,VALID,103.756,VALID,0,VALID,23.6338,VALID,128,VALID,1.14219,
2010-10-14, 02:54:04,VALID,1008.09,VALID,0,VALID,103.741,VALID,0.105969,VALID,23.655,VALID,128,VALID,0.492188,
2010-10-14, 02:55:04,VALID,1008.08,VALID,0,VALID,103.726,VALID,0.105969,VALID,23.655,VALID,128,VALID,0.576953,
2010-10-14, 02:56:04,VALID,1008.1,VALID,0,VALID,103.703,VALID,0.105969,VALID,23.6532,VALID,128,VALID,0.329297,
2010-10-14, 02:57:04,VALID,1008.07,VALID,0,VALID,103.71,VALID,0,VALID,23.655,VALID,163,VALID,0.941406,
2010-10-14, 02:58:04,VALID,1008.08,VALID,0,VALID,103.726,VALID,0.105969,VALID,23.6143,VALID,124,VALID,1.32852,
2010-10-14, 02:59:04,VALID,1008.06,VALID,0,VALID,103.748,VALID,0.105969,VALID,23.6356,VALID,133,VALID,1.94375,
2010-10-14, 03:00:04,VALID,1008.06,VALID,0,VALID,103.733,VALID,0.105969,VALID,23.655,VALID,132,VALID,1.34141,
2010-10-14, 03:01:04,VALID,1008.05,VALID,0,VALID,103.718,VALID,0,VALID,23.6338,VALID,129,VALID,0.778516,
2010-10-14, 03:02:04,VALID,1008.04,VALID,0,VALID,103.71,VALID,0,VALID,23.6532,VALID,128,VALID,0.999609,
2010-10-14, 03:03:04,VALID,1008,VALID,0,VALID,103.733,VALID,0.105969,VALID,23.6745,VALID,127,VALID,0.945313,
2010-10-14, 03:04:04,VALID,1007.99,VALID,0,VALID,103.764,VALID,0,VALID,23.6338,VALID,117,VALID,0.701953,
2010-10-14, 03:05:04,VALID,1008,VALID,0,VALID,103.741,VALID,0.105969,VALID,23.6338,VALID,125,VALID,1.00156,
2010-10-14, 03:06:04,VALID,1007.95,VALID,0,VALID,103.726,VALID,0,VALID,23.6338,VALID,142,VALID,1.3668,
2010-10-14, 03:07:04,VALID,1007.96,VALID,0,VALID,103.733,VALID,0,VALID,23.6338,VALID,116,VALID,0.999609,
2010-10-14, 03:08:04,VALID,1007.94,VALID,0,VALID,103.748,VALID,0,VALID,23.6143,VALID,141,VALID,1.09727,
2010-10-14, 03:09:04,VALID,1007.94,VALID,0,VALID,103.756,VALID,0.105969,VALID,23.6338,VALID,141,VALID,0.961719,
2010-10-14, 03:10:04,VALID,1007.95,VALID,0,VALID,103.756,VALID,0.105969,VALID,23.6338,VALID,133,VALID,0.488281,
2010-10-14, 03:11:04,VALID,1007.93,VALID,0,VALID,103.733,VALID,0,VALID,23.6143,VALID,115,VALID,0.605859,
2010-10-14, 03:12:04,VALID,1007.96,VALID,0,VALID,103.733,VALID,0,VALID,23.6356,VALID,125,VALID,0.739062,
2010-10-14, 03:13:04,VALID,1007.95,VALID,0,VALID,103.764,VALID,0.105969,VALID,23.6143,VALID,132,VALID,0.683594,
2010-10-14, 03:14:04,VALID,1007.93,VALID,0,VALID,103.756,VALID,0.105969,VALID,23.6356,VALID,145,VALID,1.03867,
2010-10-14, 03:15:04,VALID,1007.94,VALID,0,VALID,103.787,VALID,0.105969,VALID,23.5948,VALID,145,VALID,0.696484,
2010-10-14, 03:16:04,VALID,1007.93,VALID,0,VALID,103.794,VALID,0.105969,VALID,23.5771,VALID,133,VALID,0.984766,
2010-10-14, 03:17:04,VALID,1007.95,VALID,0,VALID,103.756,VALID,0,VALID,23.5753,VALID,132,VALID,0.887891,
2010-10-14, 03:18:04,VALID,1007.91,VALID,0,VALID,103.771,VALID,0,VALID,23.5753,VALID,148,VALID,1.13906,
2010-10-14, 03:19:04,VALID,1007.93,VALID,0,VALID,103.771,VALID,0,VALID,23.5966,VALID,131,VALID,1.13359,
2010-10-14, 03:20:04,VALID,1007.92,VALID,0,VALID,103.794,VALID,0.105969,VALID,23.5558,VALID,126,VALID,1.39922,
2010-10-14, 03:21:04,VALID,1007.91,VALID,0,VALID,103.787,VALID,0.105969,VALID,23.5363,VALID,112,VALID,1.56445,
2010-10-14, 03:22:04,VALID,1007.91,VALID,0,VALID,103.794,VALID,0.105969,VALID,23.5363,VALID,126,VALID,1.02695,
2010-10-14, 03:23:04,VALID,1007.91,VALID,0,VALID,103.779,VALID,0,VALID,23.5169,VALID,123,VALID,1.40156,
2010-10-14, 03:24:04,VALID,1007.92,VALID,0,VALID,103.771,VALID,0,VALID,23.5169,VALID,118,VALID,1.02461,
2010-10-14, 03:25:04,VALID,1007.95,VALID,0,VALID,103.771,VALID,0.105969,VALID,23.5169,VALID,137,VALID,1.2207,
2010-10-14, 03:26:04,VALID,1007.96,VALID,0,VALID,103.779,VALID,0.105969,VALID,23.4974,VALID,124,VALID,1.50195,
2010-10-14, 03:27:04,VALID,1007.97,VALID,0,VALID,103.779,VALID,0.105969,VALID,23.4974,VALID,119,VALID,1.01133,
2010-10-14, 03:28:04,VALID,1007.98,VALID,0,VALID,103.779,VALID,0,VALID,23.4974,VALID,110,VALID,1.23203,
2010-10-14, 03:29:04,VALID,1007.98,VALID,0,VALID,103.771,VALID,0,VALID,23.4992,VALID,123,VALID,1.03008,
2010-10-14, 03:30:04,VALID,1008.01,VALID,0,VALID,103.771,VALID,0.105969,VALID,23.4992,VALID,121,VALID,1.45898,
2010-10-14, 03:31:04,VALID,1008.04,VALID,0,VALID,103.779,VALID,0,VALID,23.4974,VALID,127,VALID,0.467187,
2010-10-14, 03:32:04,VALID,1008.05,VALID,0,VALID,103.764,VALID,0,VALID,23.5169,VALID,142,VALID,1.15,
2010-10-14, 03:33:04,VALID,1008.08,VALID,0,VALID,103.756,VALID,0,VALID,23.5169,VALID,136,VALID,0.88125,
2010-10-14, 03:34:04,VALID,1008.11,VALID,0,VALID,103.779,VALID,0,VALID,23.5169,VALID,125,VALID,0.733984,
2010-10-14, 03:35:04,VALID,1008.11,VALID,0,VALID,103.748,VALID,0,VALID,23.5576,VALID,110,VALID,0.898047,
2010-10-14, 03:36:04,VALID,1008.13,VALID,0,VALID,103.794,VALID,0,VALID,23.5169,VALID,100,VALID,1.55781,
2010-10-14, 03:37:04,VALID,1008.15,VALID,0,VALID,103.779,VALID,0,VALID,23.5381,VALID,110,VALID,1.02891,
2010-10-14, 03:38:04,VALID,1008.14,VALID,0,VALID,103.787,VALID,0,VALID,23.5169,VALID,90,VALID,1.15234,
2010-10-14, 03:39:04,VALID,1008.15,VALID,0,VALID,103.779,VALID,0.105969,VALID,23.5363,VALID,114,VALID,0.625,
2010-10-14, 03:40:04,VALID,1008.17,VALID,0,VALID,103.787,VALID,0,VALID,23.5576,VALID,124,VALID,0.913281,
2010-10-14, 03:41:04,VALID,1008.15,VALID,0,VALID,103.779,VALID,0.105969,VALID,23.5771,VALID,125,VALID,0.644922,